THOR AGENA B R/B, 741

Orbit data source: Space-Track

THOR AGENA B R/B, 741 is space debris in LEO originally from a launch on Sat, 25 Jan 1964 UTC launched from the Air Force Western Test Range (AFWTR). Debris objects in space refer to the collection of defunct objects orbiting the Earth. Examples of debris include non-operational satellites, rocket bodies, and fragments generated from explosions, collisions, or faulty payload assembly.

Loading next visibility...
THOR AGENA B R/B details
Identifier
741, 1964-004B
Orbit
LEO
Last TLE update8 hours ago
Origin
Flag of USGSFC (US)
ManufacturerLMSC
MissionSpacecraft
Bus & MotorAGENA B, Unknown motor
Mass~705 kg wet, 705 kg dry
Launch date (UTC)
1964-01-25 (61 years ago)
Launch vehicleUnknown
Launch site
Air Force Western Test Range (AFWTR)
Object type
Payload
Rocket body
Debris
Shape & HBRCyl + 1 Nozzle, 6.3 m
Radar Cross Section8.306 m², Large (>1 m²)

Expand to show TLE details & history

TLE from 8 hours ago
0 THOR AGENA B R/B
1 00741U 64004B   25044.47927331  .00000138  00000-0  27792-3 0  9999
2 00741  81.4901 202.1184 0171854  12.9260  51.5894 13.23787349948405
Epoch: 2025-02-13T11:30Z
Definitive object data (Epoch: 2025-02-13T11:30:09.213Z)
Latitude64.78065°
Longitude-95.74963°
Altitude1,102.196 km
Speed7.346 km/s
True Right ascension14h 42m 10s
True Declination64° 39' 14"
Sunlit
Object was in daylight at TLE epoch
Visualization TLE readout
Latitude-52.22976°
Longitude76.6269°
Altitude1,287.845 km
Speed7.165 km/s
Apparent Right ascension06h 20m 16s
Apparent Declination-64° 39' 33"
Sunlit
Object is in daylight
Visualization observer readout
Local Sidereal Time22:12:38
Azimuth146.456° SSE
Elevation-48.887°
Doppler factor1
Orbital elements
Apogee altitude1,297.243 km
Perigee altitude1,037.891 km
Semi-major axis7,545.704 km
Eccentricity0.0171854
Inclination81.4901°
RAAN202.1184°
Arg. of periapsis12.926°
True anomaly53.15317°
Mean anomaly51.5894°
Eccentric anomaly52.36921°
Mean motion3.31126 °/min
BSTAR0.00027792
Orbital period108.72 mins
Loading maneuver chart data...
Loading historical data...
Loading historical data...
Loading historical data...
Loading historical data...
Loading historical data...
Loading historical data...
Loading historical data...

THOR AGENA B R/B Visibility forecast

Observer location: undefined°, undefined

Span
Click to sort rows by Start time (UTC) header in descending order
Start Az.
Max El. time (UTC)
Max El. Az.
Max El.
End time (UTC)
End Az.
11 mins2025-02-13 20:49:46.226Z17.77° NNE2025-02-13 20:54:46.226Z62.658° ENE22.438°2025-02-13 21:00:46.226Z117.671° SE
13 mins2025-02-13 22:39:46.226Z341.917° N2025-02-13 22:45:46.226Z255.734° W41.872°2025-02-13 22:52:46.226Z187.373° SSW
11 mins2025-02-14 10:52:46.226Z172.029° S2025-02-14 10:57:46.226Z71.411° E42.157°2025-02-14 11:03:46.226Z14.744° NNE
7 mins2025-02-14 12:44:46.226Z262.446° W2025-02-14 12:47:46.226Z294.456° NW18.165°2025-02-14 12:51:46.226Z334.139° NNW
|